Погода в Николаевской

Россия / Ростовская область     47°37′01″N   41°29′40″E
темп.,
°C
ветер,
м/с
пор.,
м/с
влажн.,
%
обл.,
%
осадки,
мм/ч
давл.,
гПа
погр.,
м
13 июня, вс
вс1300:00+17зсз11855 0.0 101211
03:00+16з22906 0.0 101215
06:00+18ююз118645 0.0 101286
09:00+22юз3361100 0.0 1012725
12:00+25ююз33534 0.0 10121498
15:00+27юз344882 0.0 10112162
18:00+24з2465100 0.0 1011140
21:00+20сз2275100 0.0 101230
14 июня, пн
пн1400:00+20ссз1173100 0.0 101211
03:00+20зсз1173100 0.0 101211
06:00+20з00750 0.0 101264
09:00+24всв226137 0.3 1012630
12:00+26в335182 0.3 10121642
15:00+26в2253100 0.4 10121486
18:00+25ю1163100 0.0 101126
21:00+21в337478 0.3 101137
15 июня, вт
вт1500:00+19всв34836 0.0 101154
03:00+17всв36885 0.0 1011104
06:00+19св4787100 0.0 1010214
09:00+23всв3469100 0.0 1010778
12:00+26св1255100 0.0 10101270
15:00+27с225199 0.0 10091508
18:00+27сз2156100 0.0 1009990
21:00+20з11802 0.9 100911
16 июня, ср
ср1600:00+20зюз00800 0.5 100911
03:00+19сз00840 0.5 100911
06:00+20ссз0183100 0.4 101048
09:00+25юв12666 0.4 1010649
12:00+28юв465891 1.1 10091605
15:00+22з578869 10.4 1011512
18:00+20з359363 1.3 1012271
21:00+19зсз229729 3.8 101339
17 июня, чт
чт1700:00+17ссв119732 0.7 101316
03:00+17ссз119848 1.5 101224
06:00+18ссв48940 0.7 1012282
09:00+24св81071100 0.7 1011867
12:00+26св71167100 0.0 10111232
15:00+27св71263100 0.3 1008543
18:00+21св122090100 3.8 1009635
21:00+20з5692100 8.6 1014206